Location: Beryl-Newcastle Division
(37.8707°N, 113.6874°W)
Time: 12:23:33
(UTC+00:00)

Daily predictions for brighter satellites

Satellite Brightness Start Highest point End
(mag) Time Altitude Azimuth Time Altitude Azimuth Time Altitude Azimuth
Cosmos 2173 Rocket 3.8 12:04:27 10° S 12:10:43 87° W 12:16:55 10° N
COBE Rocket 4.1 12:19:29 10° SSE 12:24:35 76° ENE 12:29:38 10° N
Cosmos 2360 Rocket 3.1 12:19:33 12° N 12:24:42 47° ENE 12:30:08 10° SE
Cosmos 1408 Rocket 3.4 12:21:00 10° S 12:25:19 88° E 12:29:41 10° N
Delta 2 Rocket 3.5 12:25:19 62° SSW 12:25:42 66° S 12:30:24 10° E
Cosmos 2061 Rocket 3.9 12:21:16 10° S 12:27:30 89° W 12:33:44 10° N
Cosmos 1833 4.3 12:22:59 10° SSW 12:28:35 78° ESE 12:34:13 10° NNE
SL-16 R/B 2.1 12:30:03 39° NW 12:32:01 62° WSW 12:37:35 10° S
Cosmos 2298 Rocket 4.1 12:32:46 44° WSW 12:33:49 50° WNW 12:38:59 10° N
ALOS 3.6 12:29:36 10° NNE 12:34:01 41° E 12:38:24 10° SSE
CZ-3B R/B 3.3 12:30:19 19° SW 12:34:17 30° S 12:38:35 10° SE
Cosmos 1606 4.4 12:32:15 10° NNE 12:35:46 34° ENE 12:39:16 10° SE
Cosmos 1825 2.0 12:32:51 10° S 12:36:36 87° W 12:40:23 10° N
Cosmos 2322 Rocket 2.1 12:35:06 30° NW 12:37:55 66° WSW 12:43:32 10° S
NOSS 3-4 (A) 3.9 12:34:07 19° NNW 12:39:40 86° ENE 12:47:33 10° SSE
NOSS 3-4 (C) 3.9 12:34:12 19° NNW 12:39:47 85° ENE 12:47:38 10° SSE
SJ-12 4.1 12:44:10 10° NNE 12:48:20 76° ESE 12:52:26 10° S
Cosmos 1459 Rocket 4.3 12:42:58 10° SSW 12:48:48 43° WNW 12:54:47 10° N
Cosmos 468 4.5 12:43:46 11° NNW 12:48:59 87° ENE 12:54:14 10° SSE
OAO 3 Rocket 4.2 12:48:31 26° WSW 12:50:12 33° SSW 12:54:31 10° SE
Lacrosse 5 rocket 3.4 12:48:36 11° N 12:50:42 16° NE 12:53:00 10° ENE
Cosmos 1933 3.5 12:48:15 10° N 12:52:16 72° E 12:56:15 10° SSE
FENGYUN 3A 4.1 12:49:02 10° NNE 12:54:26 66° ESE 12:59:46 10° S
COSMO-SKYMED 1 2.5 12:53:07 10° SSE 12:57:28 87° W 13:01:49 10° NNW
USA 116 4.0 12:58:12 10° SSE 13:01:25 56° ENE 13:04:59 10° N
Cosmos 1437 4.0 12:58:58 10° SSW 13:03:17 23° NNW 13:04:46 10° N
Cosmos 1484 Rocket 3.0 12:58:34 10° N 13:02:27 49° WNW 13:06:18 10° SSW
Cosmos 2016 Rocket 4.2 12:57:42 10° SSW 13:03:42 48° W 13:09:49 10° N
Cosmos 1725 Rocket 4.0 12:58:19 10° SSW 13:04:29 61° W 13:10:45 10° N
ATLAS CENTAUR R/B 3.2 13:05:45 18° NW 13:05:45 18° NW 13:08:47 10° N
Meteor 2-3 Rocket 3.8 13:00:47 10° S 13:06:33 89° W 13:12:23 10° N
H-2A R/B 3.2 13:04:32 10° SSW 13:06:38 20° SSE 13:11:09 10° ESE
Cosmos 2322 4.0 13:06:53 10° NNW 13:12:33 69° ENE 13:18:10 10° SSE
Cosmos 2219 Rocket 3.5 13:07:57 10° N 13:13:14 39° ENE 13:18:31 10° SE
CZ-2C R/B 4.0 13:10:36 10° NNW 13:12:17 15° NW 13:12:17 15° NW
SL-4 R/B 2.5 13:10:41 21° WNW 13:13:50 60° SW 13:18:31 10° SE
Cosmos 1782 4.2 13:10:23 10° N 13:14:09 40° E 13:17:53 10° SSE
Cosmos 972 Rocket 4.0 13:10:46 10° SSW 13:15:47 64° WNW 13:21:20 10° N
CZ-4B R/B 3.3 13:10:42 10° NNE 13:16:11 85° ESE 13:21:43 10° SSW
ATLAS 2AS CENTAUR R/B 3.3 13:13:18 14° NW 13:19:11 40° WSW 13:25:26 10° S
Cosmos 2333 Rocket 3.1 13:17:54 10° NNW 13:23:31 50° ENE 13:29:05 10° SE
Cosmos 1125 Rocket 4.0 13:19:03 10° SW 13:23:54 37° WNW 13:28:46 10° N
BREEZE-M DEB (TANK) 3.0 13:24:27 16° WSW 13:25:20 20° SW 13:27:31 10° SSE
Cosmos 1151 Rocket 4.1 13:22:23 10° NW 13:25:51 24° W 13:29:20 10° SW
Cosmos 1400 Rocket 2.8 13:24:58 10° NNW 13:28:58 61° W 13:32:52 10° S
STARLINK-46 3.6 13:27:31 12° NW 13:30:06 43° NE 13:32:57 10° ESE
STARLINK 1050 4.3 13:28:42 10° SSW 13:31:17 35° SE 13:33:53 10° ENE
STARLINK-67 3.9 13:30:30 16° W 13:31:48 23° SW 13:33:59 10° S
STARLINK 1055 4.3 13:29:41 10° SSW 13:32:18 36° SE 13:34:54 10° ENE
STARLINK 1022 4.2 13:30:40 10° SSW 13:33:16 37° SE 13:35:54 10° ENE
STARLINK 1042 4.2 13:31:22 10° SSW 13:34:01 38° SE 13:36:39 10° ENE
STARLINK 1056 4.1 13:32:29 10° SSW 13:35:07 39° SE 13:37:45 10° ENE
STARLINK 1054 4.0 13:33:35 10° SSW 13:36:14 41° SE 13:38:54 10° ENE
STARLINK 1062 3.9 13:34:22 10° SSW 13:37:01 42° SE 13:39:42 10° ENE
Tsikada Rocket 4.3 13:32:01 10° NNW 13:38:01 45° W 13:43:55 10° SSW
STARLINK 1053 3.8 13:35:53 10° SSW 13:38:34 44° SE 13:41:16 10° ENE
COSMOS 2455 4.4 13:35:47 11° WNW 13:38:39 15° WSW 13:41:59 10° SW
STARLINK 1061 3.8 13:36:22 10° SSW 13:39:04 45° SE 13:41:47 10° ENE
STARLINK 1067 3.7 13:37:29 10° SSW 13:40:11 46° SE 13:42:53 10° ENE
STARLINK 1058 3.7 13:38:24 10° SSW 13:41:07 48° SE 13:43:52 10° ENE
FALCON 9 DEB 3.2 13:38:48 10° SSW 13:41:07 48° SE 13:43:29 10° ENE
STARLINK 1043 3.6 13:39:25 10° SSW 13:42:09 50° SE 13:44:54 10° ENE
STARLINK 1065 3.5 13:40:19 10° SSW 13:43:03 51° SE 13:45:48 10° ENE
STARLINK 1027 3.5 13:41:09 10° SSW 13:43:55 53° SE 13:46:42 10° ENE
STARLINK 1028 3.5 13:41:21 10° SSW 13:44:07 53° SE 13:46:53 10° ENE
STARLINK 1021 3.5 13:41:32 10° SSW 13:44:18 53° SE 13:47:05 10° ENE
STARLINK 1063 3.4 13:41:36 10° SSW 13:44:21 53° SE 13:47:06 10° ENE
STARLINK 1019 3.4 13:41:43 10° SSW 13:44:29 54° SE 13:47:16 10° ENE
STARLINK 1012 3.4 13:41:53 10° SSW 13:44:40 54° SE 13:47:26 10° ENE
Helios 1A Rocket 3.4 13:40:57 10° N 13:44:43 36° WNW 13:48:26 10° SW
STARLINK 1010 3.4 13:42:05 10° SW 13:44:51 54° SE 13:47:38 10° ENE
STARLINK 1026 3.4 13:42:17 10° SW 13:45:03 55° SE 13:47:50 10° ENE
STARLINK 1064 3.4 13:42:23 10° SW 13:45:09 55° SE 13:47:54 10° ENE
Okean O Rocket 2.0 13:41:11 10° N 13:45:13 39° WNW 13:49:16 10° SW
STARLINK 1013 3.4 13:42:28 10° SW 13:45:14 55° SE 13:48:02 10° NE
Starlink Launch 2 leader 2.8 13:42:58 10° SW 13:45:23 59° SE 13:47:48 10° NE
STARLINK 1009 3.4 13:42:38 10° SW 13:45:24 55° SE 13:48:12 10° NE
STARLINK 1015 3.4 13:42:49 10° SW 13:45:36 56° SE 13:48:23 10° NE
STARLINK 1016 3.4 13:43:01 10° SW 13:45:47 56° SE 13:48:35 10° NE
STARLINK 1008 3.3 13:43:12 10° SW 13:45:59 57° SE 13:48:47 10° NE
STARLINK 1014 3.3 13:43:22 10° SW 13:46:08 57° SE 13:48:56 10° NE
STARLINK 1041 3.3 13:43:26 10° SW 13:46:11 57° SE 13:48:58 10° NE
STARLINK 1025 3.3 13:43:32 10° SW 13:46:20 57° SE 13:49:08 10° NE
STARLINK 1017 3.3 13:43:45 10° SW 13:46:32 58° SE 13:49:20 10° NE
STARLINK 1023 3.3 13:43:56 10° SW 13:46:43 58° SE 13:49:32 10° NE
Cosmos 2228 Rocket 3.8 13:42:37 10° NNW 13:46:49 36° W 13:50:58 10° SSW
STARLINK 1045 3.3 13:44:06 10° SW 13:46:53 58° SE 13:49:40 10° NE
STARLINK 1007 3.3 13:44:07 10° SW 13:46:54 58° SE 13:49:42 10° NE
STARLINK 1048 3.3 13:44:18 10° SW 13:47:05 59° SE 13:49:54 10° NE
STARLINK 1049 3.3 13:44:26 10° SW 13:47:14 59° SE 13:50:02 10° NE
STARLINK 1038 3.2 13:44:30 10° SW 13:47:16 59° SE 13:50:03 10° NE
STARLINK 1051 3.2 13:44:39 10° SW 13:47:26 59° SE 13:50:14 10° NE
STARLINK 1037 3.2 13:44:50 10° SW 13:47:37 60° SE 13:50:26 10° NE
STARLINK 1068 3.2 13:44:54 10° SW 13:47:42 60° SE 13:50:30 10° NE
STARLINK 1059 3.2 13:45:02 10° SW 13:47:49 60° SE 13:50:38 10° NE
STARLINK 1034 3.2 13:45:04 10° SW 13:47:49 60° SE 13:50:37 10° NE
STARLINK 1057 3.2 13:45:13 10° SW 13:48:01 61° SE 13:50:50 10° NE
Cosmos 1805 Rocket 3.6 13:43:48 10° SSW 13:48:03 57° W 13:52:20 10° N
STARLINK 1060 3.2 13:45:21 10° SW 13:48:07 61° SE 13:50:55 10° NE
NOAA 6 4.3 13:43:19 10° N 13:48:11 46° WNW 13:53:03 10° SW
STARLINK 1052 3.2 13:45:25 10° SW 13:48:13 61° SE 13:51:02 10° NE
STARLINK 1046 3.2 13:45:32 10° SW 13:48:19 61° SE 13:51:06 10° NE
Cosmos 972 4.4 13:43:42 10° SSW 13:48:33 63° WNW 13:53:48 10° N
STARLINK 1029 3.2 13:45:47 10° SW 13:48:34 62° SE 13:51:24 10° NE
Cosmos 1707 Rocket 4.1 13:44:25 10° N 13:48:52 65° E 13:53:17 10° SSE
STARLINK 1030 3.2 13:46:09 10° SW 13:48:57 63° SE 13:51:47 10° NE
Starlink Launch 2 trailer 2.6 13:46:37 10° SW 13:49:03 69° SE 13:51:30 10° NE
FALCON 9 DEB 2.6 13:46:41 10° SW 13:49:04 66° SE 13:51:29 10° NE
STARLINK 1020 3.1 13:46:19 10° SW 13:49:08 63° SE 13:51:57 10° NE
STARLINK 1039 3.1 13:46:35 10° SW 13:49:22 63° SE 13:52:11 10° NE
STARLINK 1033 3.1 13:46:55 10° SW 13:49:43 64° SE 13:52:32 10° NE
STARLINK 1031 3.1 13:47:07 10° SW 13:49:55 64° SE 13:52:45 10° NE
STARLINK 1024 3.1 13:47:18 10° SW 13:50:07 65° SE 13:52:57 10° NE
STARLINK 1032 3.1 13:47:26 10° SW 13:50:15 65° SE 13:53:05 10° NE
STARLINK 1035 3.1 13:47:28 10° SW 13:50:16 65° SE 13:53:06 10° NE
GPS 2-05 Rocket1 3.8 13:48:05 10° SW 13:50:28 30° SSE 13:52:51 10° E
STARLINK 1011 3.1 13:47:51 10° SW 13:50:40 66° SE 13:53:31 10° NE
STARLINK 1036 3.0 13:48:02 10° SW 13:50:51 67° SE 13:53:41 10° NE
STARLINK 1047 3.0 13:48:26 10° SW 13:51:14 67° SE 13:54:04 10° NE
FALCON 9 DEB 2.4 13:49:17 10° SW 13:51:41 73° SE 13:54:07 10° NE
BREEZE-M DEB (TANK) 3.3 13:54:42 10° WNW 14:01:59 42° SW 14:04:45 10° SSE
BREEZE-M DEB (TANK) 3.8 13:58:00 10° WSW 14:10:14 67° NW 14:13:49 10° NE
